Regional Weather Roundup
Issued by NWS

Home | Current Version | Previous Version | Text Only | Print | Product List | Glossary Off
Versions: 1 2 3 4 5 6 7 8 9 10 11 12 13 14 15 16 17 18 19 20 21 22 23 24 25 26 27 28 29 30 31 32 33 34 35 36 37 38 39 40 41 42 43 44 45

000
ASUS44 KMEG 222200
RWRTN
TENNESSEE HOURLY STATE WEATHER ROUNDUP
NATIONAL WEATHER SERVICE MEMPHIS TN
500 PM CDT MON MAY 22 2017

TNZ002-004-019-021-049-052-054-088>092-222300-
WEST TENNESSEE

CITY           SKY/WX    TMP DP  RH WIND       PRES   REMARKS
MEMPHIS INTL   CLOUDY    73  55  53 NE8       29.97F
NWS MEMPHIS      N/A     71 N/A N/A MISG        N/A
JACKSON        CLOUDY    73  54  51 CALM      29.99F
DYERSBURG      CLOUDY    73  52  47 E3        29.99F
$$

TNZ008-025-027-028-033-062-065-066-222300-
NORTH MIDDLE TENNESSEE

CITY           SKY/WX    TMP DP  RH WIND       PRES   REMARKS
NASHVILLE      PTSUNNY   73  51  46 NE8       30.01F
CLARKSVILLE    CLOUDY    72  49  44 E7        30.00F
SMYRNA         CLOUDY    74  52  46 N8        30.00
CROSSVILLE     CLOUDY    72  53  51 N5        30.03F
$$

TNZ061-075-076-078-094-096-097-222300-
SOUTH MIDDLE TENNESSEE

CITY           SKY/WX    TMP DP  RH WIND       PRES   REMARKS
WINCHESTER     SUNNY     73  59  60 N7        30.00S
$$

TNZ017-018-042-046-047-222300-
NORTHEAST TENNESSEE

CITY           SKY/WX    TMP DP  RH WIND       PRES   REMARKS
TRI CITIES     PTSUNNY   75  62  64 VRB3      30.01F
$$

TNZ012-013-036-069-073-074-222300-
CENTRAL EAST TENNESSEE

CITY           SKY/WX    TMP DP  RH WIND       PRES   REMARKS
KNOXVILLE      CLOUDY    74  61  63 E6        29.98F
OAK RIDGE      PTSUNNY   75  57  53 CALM      29.99F
GATLINBURG     MOSUNNY   73  61  64 NE5       29.99F
$$

TNZ083-085-099-222300-
SOUTHEAST TENNESSEE

CITY           SKY/WX    TMP DP  RH WIND       PRES   REMARKS
CHATTANOOGA    CLOUDY    78  62  57 NE5       29.96F
$$

SKY/WX REPORTED AS FAIR MEANS FEW OR NO CLOUDS BELOW
12 THOUSAND FEET.





USA.gov is the U.S. government's official web portal to all federal, state and local government web resources and services.